Glendive, MT

2:13 PM MDT on June 23, 2017 (GMT -0600)
Dawson Community

Weather History for KGDV - January, 2012

Change the Weather History Date:

Saturday, January 28, 2012

  Actual Average Record
Temperature  
Mean Temperature 24 °F -  
Max Temperature 33 °F 27 °F 46 °F (2016)
Min Temperature 14 °F 8 °F -20 °F (2004)
Degree Days  
Heating Degree Days 42    
Moisture  
Dew Point 11 °F    
Average Humidity 58    
Maximum Humidity 86    
Minimum Humidity 41    
Precipitation  
Precipitation 0.00 in - - ()
Sea Level Pressure  
Sea Level Pressure 30.05 in    
Wind  
Wind Speed 17 mph (WNW)    
Max Wind Speed 24 mph    
Max Gust Speed 30 mph    
Visibility 10 miles    
Events      
Averages and records for this station are not official NWS values.
T = Trace of Precipitation, MM = Missing Value Source: NWS Daily Summary

Daily Weather History Graph

Daily Weather History Graph

Search for Another Location

Airport or City:

Trip Planner

Search our weather history database for the weather conditions in past years. The results will help you decide how hot, cold, wet, or windy it might be!

Date:

Astronomy

Jan. 28, 2012 Rise Set
Actual Time 7:29 AM MST 4:54 PM MST
Civil Twilight 6:56 AM MST 5:28 PM MST
Nautical Twilight 6:19 AM MST 6:05 PM MST
Astronomical Twilight 5:43 AM MST 6:40 PM MST
Moon 9:26 AM MST (1/28) 11:14 PM MST (1/28)
Length of Visible Light 10h 31m
Length of Day
9h 25m
Waxing Crescent, 28% of the Moon is Illuminated
Jan 28
Waxing Crescent
Jan 30
First Quarter
Feb 7
Full
Feb 14
Last Quarter
Feb 21
New

Hourly Weather History & Observations

Time (MST) Temp. Windchill Dew Point Humidity Pressure Visibility Wind Dir Wind Speed Gust Speed Precip Events Conditions
12:15 AM 24.8 °F 11.5 °F 10.4 °F 54% 30.00 in 10.0 mi West 17.3 mph - N/A   Clear
12:35 AM 24.8 °F 10.3 °F 10.4 °F 54% 30.00 in 10.0 mi West 20.7 mph 26.5 mph N/A   Clear
12:55 AM 24.8 °F 11.1 °F 10.4 °F 54% 30.00 in 10.0 mi West 18.4 mph 24.2 mph N/A   Clear
1:15 AM 23.0 °F 9.6 °F 10.4 °F 59% 30.00 in 10.0 mi West 16.1 mph 24.2 mph N/A   Clear
1:35 AM 24.8 °F 11.5 °F 10.4 °F 54% 30.00 in 10.0 mi West 17.3 mph 24.2 mph N/A   Clear
1:55 AM 23.0 °F 9.2 °F 10.4 °F 59% 30.00 in 10.0 mi West 17.3 mph - N/A   Clear
2:15 AM 21.2 °F 7.3 °F 10.4 °F 63% 30.01 in 10.0 mi West 16.1 mph - N/A   Clear
2:35 AM 23.0 °F 8.0 °F 10.4 °F 59% 30.01 in 10.0 mi West 20.7 mph 24.2 mph N/A   Clear
2:55 AM 23.0 °F 8.3 °F 10.4 °F 59% 30.01 in 10.0 mi West 19.6 mph - N/A   Clear
3:15 AM 21.2 °F 6.8 °F 10.4 °F 63% 30.01 in 10.0 mi West 17.3 mph - N/A   Clear
3:35 AM 21.2 °F 7.3 °F 10.4 °F 63% 30.01 in 10.0 mi West 16.1 mph - N/A   Clear
3:55 AM 21.2 °F 6.8 °F 10.4 °F 63% 30.01 in 10.0 mi West 17.3 mph - N/A   Clear
4:15 AM 21.2 °F 7.3 °F 10.4 °F 63% 30.02 in 10.0 mi West 16.1 mph - N/A   Clear
4:35 AM 21.2 °F 6.8 °F 10.4 °F 63% 30.02 in 10.0 mi West 17.3 mph - N/A   Clear
4:55 AM 21.2 °F 7.3 °F 10.4 °F 63% 30.02 in 10.0 mi West 16.1 mph - N/A   Clear
5:15 AM 21.2 °F 6.8 °F 10.4 °F 63% 30.02 in 10.0 mi West 17.3 mph - N/A   Clear
5:35 AM 21.2 °F 6.8 °F 10.4 °F 63% 30.02 in 10.0 mi West 17.3 mph 21.9 mph N/A   Clear
5:55 AM 21.2 °F 6.0 °F 10.4 °F 63% 30.02 in 10.0 mi West 19.6 mph 25.3 mph N/A   Clear
6:15 AM 21.2 °F 6.8 °F 10.4 °F 63% 30.02 in 10.0 mi West 17.3 mph 20.7 mph N/A   Clear
6:35 AM 23.0 °F 10.1 °F 10.4 °F 59% 30.03 in 10.0 mi West 15.0 mph - N/A   Scattered Clouds
6:55 AM 21.2 °F 7.3 °F 10.4 °F 63% 30.03 in 10.0 mi West 16.1 mph 23.0 mph N/A   Partly Cloudy
7:15 AM 21.2 °F 6.8 °F 10.4 °F 63% 30.03 in 10.0 mi West 17.3 mph 21.9 mph N/A   Clear
7:35 AM 21.2 °F 6.8 °F 8.6 °F 58% 30.04 in 10.0 mi West 17.3 mph - N/A   Clear
7:55 AM 21.2 °F 6.4 °F 10.4 °F 63% 30.05 in 10.0 mi West 18.4 mph 21.9 mph N/A   Clear
8:15 AM 23.0 °F 8.7 °F 10.4 °F 59% 30.05 in 10.0 mi West 18.4 mph 24.2 mph N/A   Clear
8:35 AM 24.8 °F 11.9 °F 10.4 °F 54% 30.05 in 10.0 mi West 16.1 mph 25.3 mph N/A   Clear
8:55 AM 26.6 °F 12.4 °F 10.4 °F 51% 30.06 in 10.0 mi West 21.9 mph 26.5 mph N/A   Clear
9:15 AM 26.6 °F 13.8 °F 10.4 °F 51% 30.06 in 10.0 mi West 17.3 mph 26.5 mph N/A   Clear
9:35 AM 26.6 °F 13.1 °F 10.4 °F 51% 30.06 in 10.0 mi West 19.6 mph 27.6 mph N/A   Clear
9:55 AM 28.4 °F 15.4 °F 10.4 °F 47% 30.06 in 10.0 mi West 19.6 mph 26.5 mph N/A   Clear
10:35 AM 30.2 °F 17.1 °F 12.2 °F 47% 30.07 in 10.0 mi West 21.9 mph 29.9 mph N/A   Clear
10:55 AM 30.2 °F 18.1 °F 12.2 °F 47% 30.07 in 10.0 mi West 18.4 mph 27.6 mph N/A   Clear
11:55 AM 32.0 °F 19.5 °F 12.2 °F 44% 30.07 in 10.0 mi WNW 21.9 mph 29.9 mph N/A   Clear
12:15 PM 33.8 °F 21.6 °F 12.2 °F 41% 30.07 in 10.0 mi WNW 23.0 mph 28.8 mph N/A   Clear
12:35 PM 33.8 °F 22.2 °F 12.2 °F 41% 30.06 in 10.0 mi West 20.7 mph 26.5 mph N/A   Clear
12:55 PM 33.8 °F 22.2 °F 12.2 °F 41% 30.06 in 10.0 mi West 20.7 mph 27.6 mph N/A   Partly Cloudy
1:15 PM 33.8 °F 21.3 °F 14.0 °F 44% 30.07 in 10.0 mi WNW 24.2 mph 29.9 mph N/A   Scattered Clouds
1:35 PM 33.8 °F 22.2 °F 14.0 °F 44% 30.07 in 10.0 mi WNW 20.7 mph 27.6 mph N/A   Scattered Clouds
1:55 PM 33.8 °F 22.5 °F 14.0 °F 44% 30.07 in 10.0 mi WNW 19.6 mph 29.9 mph N/A   Clear
2:35 PM 33.8 °F 22.5 °F 12.2 °F 41% 30.07 in 10.0 mi NW 19.6 mph 27.6 mph N/A   Clear
2:55 PM 33.8 °F 22.2 °F 12.2 °F 41% 30.07 in 10.0 mi NW 20.7 mph 28.8 mph N/A   Clear
3:15 PM 32.0 °F 19.5 °F 12.2 °F 44% 30.07 in 10.0 mi WNW 21.9 mph 25.3 mph N/A   Clear
3:35 PM 30.2 °F 18.5 °F 12.2 °F 47% 30.08 in 10.0 mi NW 17.3 mph - N/A   Clear
3:55 PM 30.2 °F 18.1 °F 10.4 °F 44% 30.08 in 10.0 mi NW 18.4 mph 25.3 mph N/A   Partly Cloudy
4:15 PM 30.2 °F 19.3 °F 10.4 °F 44% 30.08 in 10.0 mi NW 15.0 mph - N/A   Clear
4:35 PM 28.4 °F 18.5 °F 12.2 °F 51% 30.08 in 10.0 mi WNW 11.5 mph - N/A   Clear
4:55 PM 28.4 °F 18.5 °F 12.2 °F 51% 30.08 in 10.0 mi WNW 11.5 mph - N/A   Clear
5:15 PM 26.6 °F 16.8 °F 12.2 °F 55% 30.08 in 10.0 mi WNW 10.4 mph - N/A   Clear
6:15 PM 23.0 °F - 10.4 °F 59% 30.10 in 10.0 mi Calm Calm - N/A   Clear
6:35 PM 21.2 °F 13.6 °F 10.4 °F 63% 30.10 in 10.0 mi South 5.8 mph - N/A   Clear
6:55 PM 23.0 °F - 12.2 °F 63% 30.10 in 10.0 mi Calm Calm - N/A   Clear
8:15 PM 15.8 °F 8.6 °F 6.8 °F 68% 30.08 in 10.0 mi West 4.6 mph - N/A   Clear
8:35 PM 14.0 °F 5.1 °F 8.6 °F 79% 30.08 in 10.0 mi West 5.8 mph - N/A   Clear
8:55 PM 15.8 °F 10.2 °F 10.4 °F 79% 30.07 in 10.0 mi NW 3.5 mph - N/A   Mostly Cloudy
9:15 PM 15.8 °F 7.2 °F 12.2 °F 86% 30.07 in 10.0 mi WNW 5.8 mph - N/A   Overcast
9:35 PM 17.6 °F 10.7 °F 12.2 °F 79% 30.06 in 10.0 mi NW 4.6 mph - N/A   Mostly Cloudy
9:55 PM 17.6 °F 10.7 °F 12.2 °F 79% 30.05 in 10.0 mi NNW 4.6 mph - N/A   Mostly Cloudy
10:15 PM 17.6 °F 10.7 °F 10.4 °F 73% 30.05 in 10.0 mi NNW 4.6 mph - N/A   Mostly Cloudy
10:35 PM 17.6 °F 10.7 °F 12.2 °F 79% 30.04 in 10.0 mi ESE 4.6 mph - N/A   Overcast
11:15 PM 19.4 °F - 10.4 °F 68% 30.04 in 10.0 mi Calm Calm - N/A   Overcast
11:35 PM 19.4 °F 14.3 °F 12.2 °F 74% 30.03 in 10.0 mi East 3.5 mph - N/A   Overcast
11:55 PM 19.4 °F - 12.2 °F 74% 30.03 in 10.0 mi Calm Calm - N/A   Overcast